Location: Courçay
(47.2523°N, 0.8761°E)
Time: 20:15:47
(UTC+00:00)

ISS - Pass Details

Date: 18 November 2025
Orbit: 416 x 420 km, 51.6° (Epoch: 10 December)

Event Time Altitude Azimuth Distance (km) Brightness Sun altitude
Rises 17:56:15 0° 257° (WSW) 2,365 1.9 -16.5°
Reaches altitude 10° 17:58:22 10° 262° (W) 1,501 0.4 -16.9°
Maximum altitude 18:01:42 57° 342° (NNW) 501 -3.4 -17.4°
Enters shadow 18:02:29 43° 34° (NNE) 601 -3.3 -17.6°
